This demonstration page uses our WeatherBlox Daily Observations layout. Learn more.

Left ArrowRight Arrow

36.19886, -115.1175

Hourly Observations for January 20, 2021

Temp ( °F °C ) Dew Point ( °F °C ) Humidity (%) Winds ( mph kmh ) Pressure ( in mb ) Visibility ( mi km ) Precip ( " mm )
12:53 am 00:53 Mostly Cloudy 51 10.6 34 1.1 52 52 Calm 30.19 1022 10 16.0934 0 0
1:53 am 01:53 Mostly Cloudy 51 10.6 34 1.1 52 52 NNW 3 6 30.2 1023 10 16.0934 0 0
2:53 am 02:53 Cloudy 51 10.6 33 0.6 50 50 NNW 6 9 30.19 1023 10 16.0934 0 0
3:53 am 03:53 Cloudy 53 11.7 29 -1.7 40 40 N 7 11 30.19 1022 10 16.0934 0 0
4:53 am 04:53 Cloudy 53 11.7 26 -3.3 35 35 NNW 7 11 30.19 1022 10 16.0934 0 0
5:53 am 05:53 Cloudy 53 11.7 24 -4.4 32 32 NNW 6 9 30.21 1023 10 16.0934 0 0
6:53 am 06:53 Cloudy 52 11.1 23 -5 32 32 N 6 9 30.22 1024 10 16.0934 0 0
7:53 am 07:53 Cloudy 52 11.1 24 -4.4 34 34 NNW 7 11 30.23 1024 10 16.0934 0 0
8:53 am 08:53 Cloudy 54 12.2 23 -5 30 30 NW 6 9 30.23 1024 10 16.0934 0 0
9:53 am 09:53 Mostly Cloudy 57 13.9 26 -3.3 30 30 Calm 30.24 1024 10 16.0934 0 0
10:53 am 10:53 Mostly Cloudy 58 14.4 25 -3.9 28 28 Calm 30.22 1024 10 16.0934 0 0
11:53 am 11:53 Sunny 60 15.6 26 -3.3 27 27 VRB 3 6 30.18 1022 10 16.0934 0 0
12:53 pm 12:53 Mostly Sunny 60 15.6 27 -2.8 28 28 Calm 30.14 1021 10 16.0934 0 0
1:53 pm 13:53 Cloudy 61 16.1 29 -1.7 30 30 SE 6 9 30.13 1020 10 16.0934 0 0
2:53 pm 14:53 Cloudy 62 16.7 31 -0.6 31 31 E 7 11 30.12 1020 10 16.0934 0 0
3:53 pm 15:53 Cloudy 61 16.1 31 -0.6 32 32 SE 5 7 30.11 1020 10 16.0934 0 0
4:53 pm 16:53 Partly Cloudy 60 15.6 31 -0.6 33 33 S 5 7 30.11 1020 10 16.0934 0 0
5:53 pm 17:53 Clear 58 14.4 31 -0.6 36 36 Calm 30.11 1020 10 16.0934 0 0
6:53 pm 18:53 Clear 55 12.8 31 -0.6 40 40 WSW 3 6 30.12 1020 10 16.0934 0 0
7:53 pm 19:53 Clear 53 11.7 31 -0.6 43 43 NW 5 7 30.11 1020 10 16.0934 0 0
8:53 pm 20:53 Clear 51 10.6 31 -0.6 46 46 W 3 6 30.12 1020 10 16.0934 0 0
9:53 pm 21:53 Cloudy 51 10.6 30 -1.1 44 44 NW 5 7 30.11 1020 10 16.0934 0 0
10:53 pm 22:53 Cloudy 52 11.1 31 -0.6 45 45 NW 5 7 30.1 1019 10 16.0934 0 0
11:53 pm 23:53 Clear 49 9.4 31 -0.6 50 50 WNW 6 9 30.09 1019 10 16.0934 0 0

Powered by AerisWeather